TimeEDT,TemperatureF,Dew PointF,Humidity,Sea Level PressureIn,VisibilityMPH,Wind Direction,Wind SpeedMPH,Gust SpeedMPH,PrecipitationIn,Events,Conditions,WindDirDegrees,DateUTC
12:14 AM,33.8,32.0,93,29.90,2.5,SSE,15.0,-,N/A,Snow,Light Snow,150,2013-03-10 05:14:00
12:35 AM,33.8,32.0,93,29.89,3.0,SE,17.3,21.9,N/A,Snow,Light Snow,140,2013-03-10 05:35:00
12:54 AM,33.8,32.0,93,29.89,3.0,SSE,16.1,24.2,N/A,Snow,Light Snow,160,2013-03-10 05:54:00
1:15 AM,33.8,32.0,93,29.87,5.0,SSE,15.0,23.0,N/A,Snow,Light Snow,150,2013-03-10 06:15:00
1:35 AM,33.8,32.0,93,29.86,5.0,SSE,13.8,-,N/A,Snow,Light Snow,160,2013-03-10 06:35:00
1:54 AM,33.8,33.8,100,29.86,5.0,SSE,11.5,18.4,N/A,Rain,Light Rain,160,2013-03-10 06:54:00
3:15 AM,33.8,33.8,100,29.86,7.0,South,11.5,17.3,N/A,Rain,Light Rain,170,2013-03-10 07:15:00
3:34 AM,33.8,33.8,100,29.85,4.0,South,12.7,19.6,N/A,Snow,Light Snow,170,2013-03-10 07:34:00
3:54 AM,33.8,33.8,100,29.84,5.0,SSE,11.5,-,N/A,Rain,Light Rain,160,2013-03-10 07:54:00
4:15 AM,33.8,33.8,100,29.83,3.0,SSE,11.5,18.4,N/A,Snow,Light Snow,160,2013-03-10 08:15:00
4:34 AM,33.8,33.8,100,29.82,3.0,SSE,11.5,17.3,N/A,,Overcast,150,2013-03-10 08:34:00
4:54 AM,33.8,33.8,100,29.81,2.5,SSE,8.1,-,N/A,Snow,Light Snow,160,2013-03-10 08:54:00
5:15 AM,35.6,33.8,93,29.81,3.0,South,9.2,-,N/A,,Overcast,170,2013-03-10 09:15:00
5:34 AM,35.6,33.8,93,29.81,4.0,South,10.4,16.1,N/A,,Overcast,170,2013-03-10 09:34:00
5:55 AM,35.6,33.8,93,29.81,4.0,South,8.1,-,N/A,,Overcast,170,2013-03-10 09:55:00
6:15 AM,35.6,33.8,93,29.81,3.0,South,8.1,-,N/A,Snow,Light Snow,180,2013-03-10 10:15:00
6:34 AM,35.6,33.8,93,29.81,4.0,South,10.4,-,N/A,Rain,Light Rain,180,2013-03-10 10:34:00
6:55 AM,35.6,35.6,100,29.81,4.0,South,10.4,16.1,N/A,Rain,Light Rain,180,2013-03-10 10:55:00
7:15 AM,35.6,35.6,100,29.81,3.0,South,8.1,-,N/A,Rain,Light Rain,170,2013-03-10 11:15:00
7:34 AM,35.6,33.8,93,29.81,4.0,South,9.2,-,N/A,Rain,Light Rain,180,2013-03-10 11:34:00
8:35 AM,35.6,33.8,93,29.81,3.0,South,8.1,-,N/A,Rain,Rain,180,2013-03-10 12:35:00
8:54 AM,35.6,33.8,93,29.81,1.2,South,4.6,-,N/A,Rain,Light Rain,190,2013-03-10 12:54:00
9:14 AM,35.6,33.8,93,29.80,1.5,South,4.6,-,N/A,Rain,Light Rain,180,2013-03-10 13:14:00
9:35 AM,35.6,33.8,93,29.79,1.2,South,3.5,-,N/A,Rain,Light Rain,170,2013-03-10 13:35:00
9:54 AM,35.6,33.8,93,29.80,1.2,Calm,Calm,-,N/A,Rain,Light Rain,0,2013-03-10 13:54:00
10:14 AM,35.6,33.8,93,29.80,1.0,South,4.6,-,N/A,Snow,Light Snow,190,2013-03-10 14:14:00
10:35 AM,35.6,33.8,93,29.79,1.2,South,3.5,-,N/A,Rain,Light Rain,190,2013-03-10 14:35:00
10:54 AM,35.6,33.8,93,29.81,1.5,WSW,4.6,-,N/A,,Overcast,240,2013-03-10 14:54:00
11:14 AM,35.6,33.8,93,29.81,1.8,WSW,3.5,-,N/A,Rain,Light Rain,250,2013-03-10 15:14:00
11:35 AM,35.6,33.8,93,29.82,1.0,SSW,3.5,-,N/A,Rain,Light Rain,210,2013-03-10 15:35:00
11:52 AM,35.6,33.8,93,29.83,1.2,Calm,Calm,-,N/A,Rain,Light Rain,0,2013-03-10 15:52:00
12:14 PM,35.6,33.8,93,29.84,4.0,West,5.8,-,N/A,Rain,Light Rain,260,2013-03-10 16:14:00
12:34 PM,35.6,35.6,100,29.85,4.0,West,5.8,-,N/A,Rain,Light Rain,280,2013-03-10 16:34:00
12:55 PM,35.6,35.6,100,29.85,4.0,WNW,5.8,-,N/A,Rain,Light Rain,290,2013-03-10 16:55:00
1:14 PM,35.6,35.6,100,29.86,4.0,WNW,4.6,-,N/A,Rain,Light Rain,300,2013-03-10 17:14:00
1:34 PM,37.4,35.6,93,29.85,4.0,NW,6.9,-,N/A,Rain,Light Rain,320,2013-03-10 17:34:00
1:55 PM,37.4,35.6,93,29.85,5.0,NW,6.9,-,N/A,Rain,Light Rain,310,2013-03-10 17:55:00
2:14 PM,37.4,35.6,93,29.86,7.0,NW,5.8,-,N/A,Rain,Light Rain,320,2013-03-10 18:14:00
2:35 PM,35.6,35.6,100,29.86,7.0,NW,3.5,-,N/A,Rain,Light Rain,320,2013-03-10 18:35:00
2:55 PM,35.6,35.6,100,29.87,5.0,NW,6.9,-,N/A,Rain,Light Rain,310,2013-03-10 18:55:00
3:14 PM,35.6,35.6,100,29.86,5.0,NW,5.8,-,N/A,Rain,Light Rain,320,2013-03-10 19:14:00
3:34 PM,35.6,33.8,93,29.86,4.0,NW,5.8,-,N/A,Rain,Light Rain,320,2013-03-10 19:34:00
3:54 PM,35.6,33.8,93,29.87,10.0,NW,6.9,-,N/A,,Overcast,320,2013-03-10 19:54:00
4:15 PM,35.6,33.8,93,29.90,10.0,NNW,6.9,-,N/A,Rain,Light Rain,330,2013-03-10 20:15:00
4:34 PM,35.6,33.8,93,29.91,10.0,NNW,6.9,-,N/A,Rain,Light Rain,330,2013-03-10 20:34:00
4:55 PM,35.6,33.8,93,29.91,5.0,NNW,5.8,-,N/A,Rain,Light Rain,330,2013-03-10 20:55:00
5:15 PM,33.8,33.8,100,29.90,10.0,NNW,9.2,17.3,N/A,,Overcast,340,2013-03-10 21:15:00
5:34 PM,33.8,33.8,100,29.88,10.0,North,9.2,-,N/A,Snow,Light Snow,350,2013-03-10 21:34:00
5:55 PM,33.8,33.8,100,29.87,10.0,North,11.5,-,N/A,,Overcast,360,2013-03-10 21:55:00
6:14 PM,33.8,32.0,93,29.88,10.0,North,6.9,-,N/A,,Overcast,360,2013-03-10 22:14:00
6:34 PM,33.8,32.0,93,29.89,10.0,North,6.9,-,N/A,,Overcast,360,2013-03-10 22:34:00
6:55 PM,33.8,32.0,93,29.89,10.0,North,4.6,-,N/A,,Overcast,360,2013-03-10 22:55:00
7:14 PM,33.8,32.0,93,29.89,10.0,North,3.5,-,N/A,,Overcast,10,2013-03-10 23:14:00
7:34 PM,33.8,32.0,93,29.89,10.0,Calm,Calm,-,N/A,,Overcast,0,2013-03-10 23:34:00
7:55 PM,33.8,32.0,93,29.91,10.0,Calm,Calm,-,N/A,,Overcast,0,2013-03-10 23:55:00
8:14 PM,33.8,32.0,93,29.92,10.0,North,3.5,-,N/A,,Overcast,350,2013-03-11 00:14:00
8:34 PM,33.8,32.0,93,29.92,10.0,Calm,Calm,-,N/A,Snow,Light Snow,0,2013-03-11 00:34:00
8:55 PM,33.8,32.0,93,29.92,4.0,Calm,Calm,-,N/A,Snow,Light Snow,0,2013-03-11 00:55:00
9:14 PM,33.8,32.0,93,29.91,2.0,North,4.6,-,N/A,Snow,Light Snow,350,2013-03-11 01:14:00
9:35 PM,33.8,30.2,87,29.91,2.0,North,4.6,-,N/A,Snow,Light Snow,360,2013-03-11 01:35:00
9:54 PM,33.8,30.2,87,29.91,1.2,North,3.5,-,N/A,Snow,Light Snow,10,2013-03-11 01:54:00
10:14 PM,33.8,30.2,87,29.91,1.2,Calm,Calm,-,N/A,Snow,Light Snow,0,2013-03-11 02:14:00
10:35 PM,33.8,30.2,87,29.91,1.5,NNE,3.5,-,N/A,Snow,Light Snow,20,2013-03-11 02:35:00
10:54 PM,33.8,30.2,87,29.90,1.2,Calm,Calm,-,N/A,Snow,Light Snow,0,2013-03-11 02:54:00
11:15 PM,32.0,30.2,93,29.90,1.2,NNE,4.6,-,N/A,Snow,Light Snow,30,2013-03-11 03:15:00
11:34 PM,32.0,30.2,93,29.89,1.5,NNE,5.8,-,N/A,Snow,Light Snow,30,2013-03-11 03:34:00
11:54 PM,32.0,30.2,93,29.88,1.0,NE,5.8,-,N/A,Snow,Light Snow,40,2013-03-11 03:54:00
12:15 AM,33.8,30.2,87,29.86,2.0,NE,9.2,-,N/A,Snow,Light Snow,40,2013-03-11 04:15:00
12:34 AM,33.8,30.2,87,29.85,2.0,NE,9.2,-,N/A,Snow,Light Snow,40,2013-03-11 04:34:00
12:54 AM,33.8,30.2,87,29.82,2.5,NNE,9.2,-,N/A,Snow,Light Snow,30,2013-03-11 04:54:00